EW4479 Weather Reports


Display with metric or nautical units.
time (UTC)temp
F
wind
direction
speed
MPH
gust
MPH
rain 1hr
in
rain 24hr
in
rain mn
in
humidity
%
barometer
mb
20210730082931 72 247 1.0 4.0 0.00 0.00 0.00 71 1013.5
20210730082428 73 301 1.0 5.0 0.00 0.00 0.00 69 1013.4
20210730081930 72 247 1.0 5.0 0.00 0.00 0.00 71 1013.4
20210730081429 71 238 1.0 4.0 0.00 0.00 0.00 71 1013.5
20210730080930 71 208 1.0 4.0 0.00 0.00 0.00 72 1013.5
20210730080429 71 215 1.0 5.0 0.00 0.00 0.00 72 1013.5
20210730075929 71 224 2.0 5.0 0.00 0.00 0.00 71 1013.5
20210730075428 70 256 2.0 5.0 0.00 0.00 0.00 71 1013.5
20210730074929 70 282 1.0 5.0 0.00 0.00 0.00 73 1013.5
20210730074429 69 225 1.0 5.0 0.00 0.00 0.00 73 1013.5
20210730073931 69 191 1.0 4.0 0.00 0.00 0.00 73 1013.6
20210730073429 69 203 0.0 3.0 0.00 0.00 0.00 75 1013.6
20210730072930 67 254 0.0 3.0 0.00 0.00 0.00 78 1013.6
20210730072429 67 193 1.0 4.0 0.00 0.00 0.00 77 1013.6
20210730071930 66 178 1.0 5.0 0.00 0.00 0.00 78 1013.6
20210730071429 66 192 2.0 5.0 0.00 0.00 0.00 76 1013.6
20210730070930 66 203 1.0 4.0 0.00 0.00 0.00 77 1013.6
20210730070428 65 187 1.0 4.0 0.00 0.00 0.00 79 1013.7
20210730065930 65 101 1.0 4.0 0.00 0.00 0.00 80 1013.7
20210730065428 64 187 1.0 3.0 0.00 0.00 0.00 78 1013.7
20210730064930 64 160 1.0 3.0 0.00 0.00 0.00 80 1013.8
20210730064429 63 111 0.0 3.0 0.00 0.00 0.00 80 1013.8
20210730063931 63 104 0.0 3.0 0.00 0.00 0.00 82 1013.8
20210730063430 63 142 0.0 2.0 0.00 0.00 0.00 83 1013.8
20210730062930 62 142 0.0 2.0 0.00 0.00 0.00 81 1013.8
20210730062429 62 160 0.0 3.0 0.00 0.00 0.00 85 1013.7
20210730061930 62 179 0.0 3.0 0.00 0.00 0.00 87 1013.7
20210730061428 61 101 0.0 3.0 0.00 0.00 0.00 85 1013.6
20210730060930 61 139 0.0 3.0 0.00 0.00 0.00 88 1013.6
20210730060429 61 86 0.0 1.0 0.00 0.00 0.00 90 1013.6
20210730055931 60 79 0.0 1.0 0.00 0.00 0.00 91 1013.6
20210730055428 60 67 0.0 3.0 0.00 0.00 0.00 92 1013.6
20210730054930 60 67 0.0 3.0 0.00 0.00 0.00 92 1013.6
20210730054428 59 60 0.0 2.0 0.00 0.00 0.00 93 1013.6
20210730053930 59 57 0.0 2.0 0.00 0.00 0.00 95 1013.7
20210730053428 58 57 0.0 1.0 0.00 0.00 0.00 95 1013.7
20210730052930 58 57 0.0 1.0 0.00 0.00 0.00 96 1013.7
20210730052429 58 57 0.0 0.0 0.00 0.00 0.00 96 1013.7
20210730051931 57 57 0.0 0.0 0.00 0.00 0.00 96 1013.7
20210730051428 57 57 0.0 1.0 0.00 0.00 0.00 97 1013.7
20210730050929 56 57 0.0 1.0 0.00 0.00 0.00 97 1013.7
20210730050428 56 57 0.0 0.0 0.00 0.00 0.00 97 1013.8
20210730045931 56 57 0.0 0.0 0.00 0.00 0.00 97 1013.8
20210730045429 56 57 0.0 0.0 0.00 0.00 0.00 97 1013.8
20210730044931 56 57 0.0 0.0 0.00 0.00 0.00 97 1013.9
20210730044429 55 57 0.0 0.0 0.00 0.00 0.00 97 1013.9
20210730043928 55 57 0.0 1.0 0.00 0.00 0.00 96 1013.8
20210730043429 55 57 0.0 1.0 0.00 0.00 0.00 95 1013.8
20210730042930 56 57 0.0 2.0 0.00 0.00 0.00 96 1013.8
20210730042428 55 57 0.0 2.0 0.00 0.00 0.00 97 1013.8
20210730041929 55 213 0.0 2.0 0.00 0.00 0.00 97 1013.7
20210730041428 55 225 0.0 2.0 0.00 0.00 0.00 98 1013.7
20210730040929 54 225 0.0 1.0 0.00 0.00 0.00 98 1013.8
20210730040429 54 276 0.0 1.0 0.00 0.00 0.00 97 1013.6
20210730035931 54 276 0.0 1.0 0.00 0.00 0.00 97 1013.6
20210730035429 54 276 0.0 2.0 0.00 0.00 0.00 98 1013.7
20210730034929 54 276 0.0 2.0 0.00 0.00 0.00 98 1013.9
20210730034429 54 276 0.0 0.0 0.00 0.00 0.00 98 1013.9
20210730033929 54 276 0.0 0.0 0.00 0.00 0.00 97 1013.9
20210730033428 54 276 0.0 0.0 0.00 0.00 0.00 97 1013.9
20210730032929 54 276 0.0 0.0 0.00 0.00 0.00 97 1014.0
20210730032429 54 276 0.0 0.0 0.00 0.00 0.00 97 1014.1
20210730031929 54 276 0.0 0.0 0.00 0.00 0.00 97 1014.0
20210730031429 54 276 0.0 0.0 0.00 0.00 0.00 97 1014.1
20210730030929 54 276 0.0 0.0 0.00 0.00 0.00 97 1014.1
20210730030428 54 276 0.0 0.0 0.00 0.00 0.00 97 1014.1
20210730025929 54 276 0.0 0.0 0.00 0.00 0.00 97 1014.0
20210730025428 54 276 0.0 0.0 0.00 0.00 0.00 97 1014.0
20210730024930 54 276 0.0 0.0 0.00 0.00 0.00 97 1014.0
20210730024429 54 276 0.0 0.0 0.00 0.00 0.00 97 1013.9
20210730023928 54 276 0.0 0.0 0.00 0.00 0.00 97 1014.0
20210730023430 54 276 0.0 0.0 0.00 0.00 0.00 97 1014.0
20210730022929 54 276 0.0 0.0 0.00 0.00 0.00 96 1014.0
20210730022429 54 276 0.0 0.0 0.00 0.00 0.00 97 1014.0
20210730021929 54 276 0.0 0.0 0.00 0.00 0.00 97 1014.0
20210730021428 54 276 0.0 0.0 0.00 0.00 0.00 96 1013.8
20210730020929 54 276 0.0 0.0 0.00 0.00 0.00 97 1013.7
20210730020429 54 276 0.0 0.0 0.00 0.00 0.00 96 1013.8
20210730015929 54 276 0.0 0.0 0.00 0.00 0.00 96 1013.8
20210730015428 54 276 0.0 0.0 0.00 0.00 0.00 96 1013.7
20210730014929 55 276 0.0 0.0 0.00 0.00 0.00 96 1013.7
20210730014429 54 276 0.0 0.0 0.00 0.00 0.00 97 1013.6
20210730013929 54 276 0.0 0.0 0.00 0.00 0.00 97 1013.6
20210730013430 54 276 0.0 0.0 0.00 0.00 0.00 97 1013.6
20210730012930 54 276 0.0 0.0 0.00 0.00 0.00 96 1013.5
20210730012430 55 276 0.0 0.0 0.00 0.00 0.00 96 1013.6
20210730011930 55 276 0.0 0.0 0.00 0.00 0.00 96 1013.6
20210730011429 55 276 0.0 0.0 0.00 0.00 0.00 96 1013.6
20210730010929 55 276 0.0 0.0 0.00 0.00 0.00 96 1013.6
20210730010430 55 276 0.0 0.0 0.00 0.00 0.00 96 1013.7
20210730005929 55 276 0.0 0.0 0.00 0.00 0.00 96 1013.7
20210730005430 55 276 0.0 0.0 0.00 0.00 0.00 96 1013.6
20210730004930 55 276 0.0 0.0 0.00 0.00 0.00 96 1013.7
20210730004430 55 276 0.0 0.0 0.00 0.00 0.00 96 1013.8
20210730003930 55 276 0.0 0.0 0.00 0.00 0.00 96 1013.8
20210730003429 55 276 0.0 0.0 0.00 0.00 0.00 96 1013.8
20210730002930 55 276 0.0 0.0 0.00 0.00 0.00 96 1013.7
20210730002429 55 276 0.0 0.0 0.00 0.00 0.00 96 1013.6
20210730001931 55 276 0.0 0.0 0.00 0.00 0.00 96 1013.7
20210730001430 55 276 0.0 0.0 0.00 0.00 0.00 96 1013.6
20210730000930 55 276 0.0 0.0 0.00 0.00 0.00 96 1013.6
20210730000430 55 276 0.0 0.0 0.00 0.00 0.00 96 1013.7
20210729235930 55 276 0.0 0.0 0.00 0.00 0.00 95 1013.7
20210729235430 56 276 0.0 0.0 0.00 0.00 0.00 95 1013.7
20210729234930 56 276 0.0 0.0 0.00 0.00 0.00 95 1013.8
20210729234430 56 276 0.0 0.0 0.00 0.00 0.00 95 1013.8
20210729233930 56 276 0.0 0.0 0.00 0.00 0.00 95 1013.8
20210729233429 56 276 0.0 0.0 0.00 0.00 0.00 94 1013.8
20210729232932 56 276 0.0 1.0 0.00 0.00 0.00 95 1013.8
20210729232430 56 276 0.0 2.0 0.00 0.00 0.00 95 1013.8
20210729231930 56 276 0.0 2.0 0.00 0.00 0.00 95 1013.8
20210729231430 56 276 0.0 0.0 0.00 0.00 0.00 95 1013.8
20210729230932 56 276 0.0 0.0 0.00 0.00 0.00 95 1013.7
20210729230430 56 276 0.0 0.0 0.00 0.00 0.00 94 1013.8
20210729225930 57 276 0.0 0.0 0.00 0.00 0.00 95 1013.8
20210729225430 56 276 0.0 0.0 0.00 0.00 0.00 96 1013.9
20210729224930 56 276 0.0 0.0 0.00 0.00 0.00 95 1013.9
20210729224430 56 276 0.0 0.0 0.00 0.00 0.00 95 1014.0
20210729223929 57 276 0.0 0.0 0.00 0.00 0.00 94 1014.1
20210729223430 57 276 0.0 0.0 0.00 0.00 0.00 94 1014.1
20210729222930 57 276 0.0 0.0 0.00 0.00 0.00 93 1014.1
20210729222430 57 276 0.0 0.0 0.00 0.00 0.00 93 1014.1
20210729221931 58 276 0.0 0.0 0.00 0.00 0.00 93 1014.1
20210729221430 58 276 0.0 0.0 0.00 0.00 0.00 93 1014.1
20210729220930 58 276 0.0 0.0 0.00 0.00 0.00 92 1014.2
20210729220430 58 276 0.0 0.0 0.00 0.00 0.00 92 1014.2
20210729215930 58 276 0.0 0.0 0.00 0.00 0.00 93 1014.2
20210729215430 58 276 0.0 0.0 0.00 0.00 0.00 93 1014.2
20210729214930 58 276 0.0 1.0 0.00 0.00 0.00 93 1014.2
20210729214430 58 276 0.0 2.0 0.00 0.00 0.00 93 1014.2
20210729213930 58 276 0.0 2.0 0.00 0.00 0.00 93 1014.2
20210729213430 58 276 0.0 3.0 0.00 0.00 0.00 94 1014.2
20210729212932 58 276 0.0 3.0 0.00 0.00 0.00 93 1014.2
20210729212430 58 252 0.0 2.0 0.00 0.00 0.00 93 1014.2
20210729211929 58 252 0.0 1.0 0.00 0.00 0.00 93 1014.1
20210729211430 58 252 0.0 1.0 0.00 0.00 0.00 93 1014.1
20210729210930 59 252 0.0 1.0 0.00 0.00 0.00 93 1014.2
20210729210429 58 252 0.0 0.0 0.00 0.00 0.00 93 1014.1
20210729205930 59 252 0.0 0.0 0.00 0.00 0.00 93 1014.1
20210729205430 59 252 0.0 0.0 0.00 0.00 0.00 92 1014.1
20210729204929 59 252 0.0 0.0 0.00 0.00 0.00 92 1014.2
20210729204430 59 252 0.0 1.0 0.00 0.00 0.00 92 1014.2
20210729203929 60 252 0.0 1.0 0.00 0.00 0.00 92 1014.4
20210729203431 59 252 0.0 0.0 0.00 0.00 0.00 93 1014.3
20210729202929 60 252 0.0 0.0 0.00 0.00 0.00 93 1014.3
20210729202428 60 252 0.0 0.0 0.00 0.00 0.00 92 1014.3
20210729201927 60 252 0.0 0.0 0.00 0.00 0.00 92 1014.3
20210729201428 60 252 0.0 0.0 0.00 0.00 0.00 91 1014.3
20210729200928 61 252 0.0 0.0 0.00 0.00 0.00 89 1014.2
20210729200429 61 252 0.0 0.0 0.00 0.00 0.00 88 1014.3
20210729195924 61 252 0.0 0.0 0.00 0.00 0.00 88 1014.3
20210729195423 61 252 0.0 0.0 0.00 0.00 0.00 88 1014.3
20210729194925 62 252 0.0 0.0 0.00 0.00 0.00 87 1014.2
20210729194423 62 252 0.0 0.0 0.00 0.00 0.00 87 1014.2
20210729193924 62 252 0.0 0.0 0.00 0.00 0.00 87 1014.3
20210729193425 63 252 0.0 1.0 0.00 0.00 0.00 86 1014.3
20210729192924 63 252 0.0 1.0 0.00 0.00 0.00 85 1014.3
20210729192416 64 93 0.0 1.0 0.00 0.00 0.00 84 1014.2
20210729191916 64 17 0.0 1.0 0.00 0.00 0.00 82 1014.2
20210729191416 65 281 0.0 1.0 0.00 0.00 0.00 81 1014.1
20210729190916 65 281 0.0 1.0 0.00 0.00 0.00 81 1014.0
20210729190416 65 281 0.0 1.0 0.00 0.00 0.00 80 1014.1
20210729185912 66 281 0.0 1.0 0.00 0.00 0.00 80 1014.0
20210729185412 66 281 0.0 1.0 0.00 0.00 0.00 78 1014.0
20210729184912 67 281 0.0 1.0 0.00 0.00 0.00 77 1014.0
20210729184412 67 281 0.0 1.0 0.00 0.00 0.00 76 1014.0
20210729183912 68 281 0.0 1.0 0.00 0.00 0.00 74 1013.9
20210729183412 69 281 0.0 1.0 0.00 0.00 0.00 71 1014.0
20210729182912 69 281 0.0 1.0 0.00 0.00 0.00 71 1014.0
20210729182411 70 281 0.0 2.0 0.00 0.00 0.00 66 1014.0
20210729181912 70 281 0.0 3.0 0.00 0.00 0.00 66 1014.0
20210729181412 71 281 0.0 3.0 0.00 0.00 0.00 65 1014.0
20210729180914 71 279 0.0 3.0 0.00 0.00 0.00 63 1014.0
20210729180413 72 279 0.0 3.0 0.00 0.00 0.00 60 1014.0
20210729175912 72 288 0.0 2.0 0.00 0.00 0.00 62 1014.0
20210729175413 73 288 0.0 2.0 0.00 0.00 0.00 60 1014.0
20210729174913 73 282 0.0 2.0 0.00 0.00 0.00 60 1013.9
20210729174413 73 257 0.0 2.0 0.00 0.00 0.00 58 1014.0
20210729173913 74 257 0.0 3.0 0.00 0.00 0.00 58 1013.9
20210729173413 74 302 0.0 3.0 0.00 0.00 0.00 56 1013.9
20210729172912 74 286 1.0 5.0 0.00 0.00 0.00 58 1013.9
20210729172414 74 301 2.0 6.0 0.00 0.00 0.00 54 1013.9
20210729171912 74 301 2.0 6.0 0.00 0.00 0.00 54 1013.8
20210729171413 74 297 2.0 6.0 0.00 0.00 0.00 53 1013.8
20210729170913 75 267 1.0 5.0 0.00 0.00 0.00 54 1013.9
20210729170414 75 319 1.0 5.0 0.00 0.00 0.00 54 1013.9
20210729165913 75 295 2.0 7.0 0.00 0.00 0.00 53 1013.9
20210729165413 75 340 2.0 7.0 0.00 0.00 0.00 52 1014.0
20210729164912 75 295 2.0 6.0 0.00 0.00 0.00 53 1014.0
20210729164413 75 221 1.0 5.0 0.00 0.00 0.00 54 1014.0
20210729163904 76 261 2.0 6.0 0.00 0.00 0.00 54 1014.0
20210729163404 76 319 1.0 6.0 0.00 0.00 0.00 54 1014.0
20210729162904 76 291 2.0 8.0 0.00 0.00 0.00 55 1014.0
20210729162404 76 319 2.0 8.0 0.00 0.00 0.00 51 1014.0
20210729161904 76 310 2.0 8.0 0.00 0.00 0.00 53 1014.1
20210729161404 76 355 2.0 8.0 0.00 0.00 0.00 52 1014.1
20210729160903 77 228 2.0 7.0 0.00 0.00 0.00 56 1014.1
20210729160405 76 189 2.0 7.0 0.00 0.00 0.00 55 1014.2
20210729155908 76 248 2.0 6.0 0.00 0.00 0.00 53 1014.2
20210729155405 76 323 3.0 8.0 0.00 0.00 0.00 52 1014.3
20210729154905 77 307 2.0 8.0 0.00 0.00 0.00 53 1014.3
20210729154404 77 281 2.0 7.0 0.00 0.00 0.00 53 1014.3
20210729153904 77 301 2.0 7.0 0.00 0.00 0.00 55 1014.3
20210729153403 76 309 3.0 11.0 0.00 0.00 0.00 55 1014.4
20210729152903 77 288 3.0 11.0 0.00 0.00 0.00 53 1014.5
20210729152404 77 289 2.0 8.0 0.00 0.00 0.00 52 1014.4
20210729151903 77 285 2.0 8.0 0.00 0.00 0.00 53 1014.4
20210729151403 77 208 2.0 8.0 0.00 0.00 0.00 53 1014.5
20210729150904 77 321 4.0 12.0 0.00 0.00 0.00 51 1014.4
20210729150403 77 265 4.0 12.0 0.00 0.00 0.00 51 1014.4
20210729145903 77 322 3.0 11.0 0.00 0.00 0.00 49 1014.5
20210729145404 77 235 3.0 8.0 0.00 0.00 0.00 53 1014.5
20210729144904 78 298 3.0 10.0 0.00 0.00 0.00 53 1014.5
20210729144404 77 254 3.0 10.0 0.00 0.00 0.00 53 1014.5
20210729143904 77 202 3.0 9.0 0.00 0.00 0.00 54 1014.5
20210729143404 78 284 3.0 12.0 0.00 0.00 0.00 55 1014.5
20210729142905 77 333 2.0 12.0 0.00 0.00 0.00 55 1014.5
20210729142404 76 260 2.0 8.0 0.00 0.00 0.00 53 1014.6
20210729141904 76 338 2.0 6.0 0.00 0.00 0.00 58 1014.6
20210729141404 77 193 2.0 7.0 0.00 0.00 0.00 56 1014.6
20210729140903 77 333 2.0 7.0 0.00 0.00 0.00 55 1014.6
20210729140404 77 316 1.0 7.0 0.00 0.00 0.00 55 1014.6
20210729135904 76 221 2.0 6.0 0.00 0.00 0.00 56 1014.8
20210729135404 75 335 2.0 9.0 0.00 0.00 0.00 56 1014.9
20210729134904 77 286 2.0 9.0 0.00 0.00 0.00 56 1014.8
20210729134404 77 285 2.0 8.0 0.00 0.00 0.00 56 1014.9
20210729133904 77 93 2.0 8.0 0.00 0.00 0.00 57 1014.8
20210729133404 77 246 2.0 6.0 0.00 0.00 0.00 53 1014.8
20210729132904 77 274 2.0 7.0 0.00 0.00 0.00 54 1014.9
20210729132404 78 275 3.0 7.0 0.00 0.00 0.00 54 1014.9
20210729131904 76 350 3.0 10.0 0.00 0.00 0.00 54 1015.0
20210729131404 76 244 2.0 10.0 0.00 0.00 0.00 53 1015.0
20210729130904 77 208 2.0 7.0 0.00 0.00 0.00 55 1015.1
20210729130403 76 222 3.0 12.0 0.00 0.00 0.00 56 1015.1
20210729125903 77 252 4.0 12.0 0.00 0.00 0.00 53 1015.1
20210729125403 78 216 3.0 9.0 0.00 0.00 0.00 53 1015.2
20210729124903 77 230 3.0 8.0 0.00 0.00 0.00 53 1015.2
20210729124404 77 333 3.0 7.0 0.00 0.00 0.00 53 1015.3
20210729123904 78 231 2.0 7.0 0.00 0.00 0.00 56 1015.3
20210729123404 77 5 1.0 7.0 0.00 0.00 0.00 56 1015.3
20210729122904 76 236 2.0 6.0 0.00 0.00 0.00 54 1015.4
20210729122405 77 209 2.0 6.0 0.00 0.01 0.00 54 1015.4
20210729121902 77 217 4.0 9.0 0.00 0.01 0.00 54 1015.5
20210729121401 77 27 4.0 10.0 0.00 0.01 0.00 55 1015.5
20210729120901 76 265 4.0 10.0 0.00 0.01 0.00 55 1015.5
20210729120401 77 305 3.0 9.0 0.00 0.01 0.00 58 1015.6
20210729115902 77 234 3.0 11.0 0.00 0.01 0.00 55 1015.6
20210729115400 76 215 3.0 12.0 0.00 0.01 0.00 60 1015.7
20210729114901 76 328 2.0 12.0 0.00 0.01 0.00 56 1015.8
20210729114401 76 305 2.0 7.0 0.00 0.01 0.00 59 1015.9
20210729113901 76 310 3.0 10.0 0.00 0.01 0.00 56 1015.9
20210729113400 76 261 3.0 10.0 0.00 0.01 0.00 54 1015.9
20210729112900 76 244 3.0 10.0 0.00 0.01 0.00 57 1016.0
20210729112400 76 294 2.0 9.0 0.00 0.01 0.00 59 1016.0
20210729111902 74 309 2.0 9.0 0.00 0.01 0.00 62 1016.1
20210729111401 74 277 3.0 7.0 0.00 0.01 0.00 58 1016.0
20210729110901 74 5 3.0 8.0 0.00 0.01 0.00 62 1016.2
20210729110400 73 331 2.0 8.0 0.00 0.01 0.00 64 1016.1
20210729105901 75 298 3.0 9.0 0.00 0.01 0.00 59 1016.2
20210729105400 74 334 3.0 9.0 0.00 0.01 0.00 59 1016.2
20210729104902 75 289 2.0 7.0 0.00 0.01 0.00 61 1016.1
20210729104401 75 314 1.0 5.0 0.00 0.01 0.00 63 1016.2
20210729103901 73 208 1.0 5.0 0.00 0.02 0.00 65 1016.2
20210729103401 72 277 2.0 7.0 0.00 0.02 0.00 65 1016.3
20210729102901 71 272 2.0 7.0 0.00 0.02 0.00 64 1016.3
20210729102401 72 220 1.0 6.0 0.00 0.02 0.00 64 1016.3
20210729101902 71 221 1.0 4.0 0.00 0.02 0.00 64 1016.3
20210729101401 71 272 2.0 4.0 0.00 0.02 0.00 64 1016.4
20210729100901 72 320 2.0 4.0 0.00 0.02 0.00 64 1016.3
20210729100400 71 240 2.0 7.0 0.00 0.02 0.00 68 1016.3
20210729095901 71 309 2.0 7.0 0.00 0.04 0.00 64 1016.4
20210729095401 71 278 1.0 5.0 0.00 0.06 0.00 66 1016.5
20210729094901 71 284 1.0 4.0 0.00 0.06 0.00 63 1016.5
20210729094401 71 308 2.0 5.0 0.00 0.06 0.00 64 1016.7
20210729093901 71 227 2.0 6.0 0.00 0.06 0.00 64 1016.7
20210729093400 71 335 2.0 7.0 0.00 0.07 0.00 62 1016.7
20210729092900 71 291 2.0 9.0 0.00 0.07 0.00 65 1016.7
20210729092402 71 300 2.0 9.0 0.00 0.07 0.00 61 1016.7
20210729091902 72 291 2.0 6.0 0.00 0.08 0.00 58 1016.7
20210729091401 72 316 3.0 7.0 0.00 0.08 0.00 60 1016.7
20210729090901 73 210 3.0 9.0 0.00 0.08 0.00 61 1016.5
20210729090400 73 315 2.0 9.0 0.00 0.09 0.00 62 1016.7
20210729085901 72 327 3.0 8.0 0.00 0.09 0.00 61 1016.7
20210729085402 72 323 2.0 7.0 0.00 0.10 0.00 62 1016.7
20210729084901 71 324 2.0 6.0 0.00 0.11 0.00 61 1016.7
20210729084401 71 5 2.0 7.0 0.00 0.12 0.00 62 1016.7
20210729083900 71 288 2.0 7.0 0.00 0.12 0.00 61 1016.7
20210729083400 71 313 2.0 7.0 0.00 0.12 0.00 61 1016.8